Regional Weather Roundup
Issued by NWS State College, PA

Home | Current Version | Previous Version | Text Only | Print | Product List | Glossary Off
Versions: 1 2 3 4 5 6 7 8 9 10 11 12 13 14 15 16 17 18 19 20 21 22 23 24 25 26 27 28 29 30 31 32 33 34 35 36 37 38 39 40 41 42 43 44 45 46 47 48 49 50

000
ASUS41 KCTP 101110
RWRCTP

REGIONAL WEATHER ROUNDUP
NATIONAL WEATHER SERVICE STATE COLLEGE PA
700 AM EDT THU JUL 10 2014

Note: "fair" indicates few or no clouds below 12,000 feet with no
significant weather and/or obstructions to visibility.

* = STATION THAT DOES NOT REPORT PRECIPITATION /E.G. RAIN...SNOW...ETC/
    THUNDER OR FOG.

PAZ002>004-007>009-013>016-020>023-029>032-101200-
WESTERN PENNSYLVANIA

CITY           SKY/WX    TMP DP  RH WIND       PRES   REMARKS
ERIE           SUNNY     59  54  83 CALM      30.11R
MEADVILLE      CLEAR     56  53  90 NE3       30.12R
FRANKLIN*      CLOUDY    55  52  88 NE5       30.13R VSB 1/2
NEW CASTLE     NOT AVBL
BEAVER COUNTY  CLEAR     61  59  94 CALM      30.10
BUTLER*        CLEAR     59  55  88 N5        30.11R
PITTSBURGH INT PTCLDY    64  60  87 N3        30.09R
PITTSBURGH     CLEAR     66  59  78 CALM      30.08R
INDIANA*       PTSUNNY   64  61  88 E5        30.13R
LATROBE        SUNNY     59  59 100 CALM      30.09R
WASHINGTON CO* PTCLDY    55  55 100 CALM      30.09R
$$

PAZ004>006-010>012-017>019-024>028-033>037-041-042-045-046-049>053-101200-
CENTRAL PENNSYLVANIA

CITY           SKY/WX    TMP DP  RH WIND       PRES   REMARKS
BRADFORD       MOSUNNY   50  49  96 CALM      30.14R
DUBOIS         FOG       59  58  96 E6        30.11R VSB<1/4
CLEARFIELD     FOG       60  59  96 N5        30.12R VSB 1
JOHNSTOWN      MOSUNNY   59  57  93 CALM      30.11R
ALTOONA        SUNNY     60  59  96 CALM      30.11R FOG
STATE COLLEGE  MOSUNNY   59  59 100 CALM      30.10R
WILLIAMSPORT   CLOUDY    65  61  87 NW3       30.08R
SELINSGROVE    MOSUNNY   64  62  93 CALM      30.08R FOG
FT INDIANTOWN  SUNNY     66  66 100 VRB5      30.06R
CAPITAL CITY   MOSUNNY   67  63  87 CALM      30.06R
HARRISBURG     MOSUNNY   69  62  78 CALM      30.05R
YORK           MOSUNNY   66  64  93 SW3       30.05R
$$

PAZ038>040-043-044-047-048-054-055-060>062-067>071-101200-
EASTERN PENNSYLVANIA

CITY           SKY/WX    TMP DP  RH WIND       PRES   REMARKS
SCRANTON       CLOUDY    63  60  90 CALM      30.10R
MOUNT POCONO   SUNNY     60  57  89 NW3       30.11R
ALLENTOWN      SUNNY     65  63  93 CALM      30.06R
QUAKERTOWN*    MOSUNNY   66  64  94 CALM      30.07R
READING        MOSUNNY   68  64  87 CALM      30.05R
LANCASTER      MOSUNNY   68  64  87 E3        30.05R
COATESVILLE    MOSUNNY   68  66  94 NE3       30.06R
POTTSTOWN      MOSUNNY   67  63  87 CALM      30.07R
BLUE BELL      MOSUNNY   72  66  83 CALM      30.05R
DOYLESTOWN     MOSUNNY   68  64  87 N5        30.05R
WILLOW GROVE   NOT AVBL
NORTH PHILA    MOSUNNY   73  63  70 NE6       30.05R
PHILADELPHIA   CLOUDY    75  63  66 NE7       30.03R
$$



USA.gov is the U.S. government's official web portal to all federal, state and local government web resources and services.